{"data":{"norad_id":52002,"epoch":"2026-09-20T01:35:40.452288Z","epoch_age_seconds":92831,"freshness":"FRESH","line1":"1 52002U 22025AY  26263.06644042 -.00000484  00000+0 -31830-5 0  9992","line2":"2 52002  53.1611 215.6410 0001499  96.9465 263.1708 15.34415680250415","mean_motion":15.3441568,"eccentricity":0.0001499,"inclination_deg":53.1611,"raan_deg":215.641,"arg_perigee_deg":96.9465,"mean_anomaly_deg":263.1708,"bstar":-3.183e-6,"rev_number":25041,"period_min":93.84679906295,"perigee_km":461.63120137348,"apogee_km":463.68207130565,"semimajor_km":6840.7936363396,"source":"CELESTRAK","updated_at":"2026-09-20T09:00:39.983695Z"}}